sat.trackr.live / text

‹ back to catalog

STARLINK-35206

NORAD 65614 · 2025-207Y

PAYLOAD ACTIVE UNKNOWN

§ Identity

Operator
Country
US
Launch date
2025-09-13
Launch site
AFWTR
Launch vehicle
Mass (kg)
RCS (m²)

Purposes: comms

External: N2YO · Heavens-Above · Gunter

§ Orbital elements

Epoch: 2026-05-25T03:27:43.478208Z

Period
95.64 min
Inclination
97.4498°
Eccentricity
0.0002144
Mean motion
15.05650296 rev/d
Perigee alt
548.0 km
Apogee alt
551.0 km
Semi-major
6,927.6 km
B*
9.3280e-5
RAAN
213.6273°
Arg perigee
150.5070°
Mean anomaly
209.6278°
Rev number
3,965

§ Raw data

STARLINK-352061 65614U 25207Y   26145.14425322  .00001288  00000+0  93280-4 0  99932 65614  97.4498 213.6273 0002144 150.5070 209.6278 15.05650296 39654

JSON: /api/v1/satellites/65614 · /tle

For live sub-satellite position, see the globe view (requires WebGL).

§ Visibility from observer

Set your observer location to see the next 7 days of passes ≥ 10°. The values pass through the URL so the page stays shareable.

No JS? Fill the form by hand. The geolocation button needs JavaScript.